Wind_Speed
19 19 18 17 16 15 13 12 11 12 11 8 9 10 10 9 8 8 8 8 7 6 5 6 7 8 9 11 12 14 15 16 18 18 19 19 19 18 18 18 18 17 16 15
17 16 15 16 16 14 13 11 11 12 10 8 9 9 9 9 8 8 8 8 7 6 5 6 7 8 9 11 12 14 15 16 17 18 19 19 19 18 18 18 18 17 16 15
15 15 16 15 14 13 12 11 10 9 7 7 7 7 9 8 7 8 8 7 7 7 6 5 7 8 9 11 12 13 15 16 17 18 19 19 19 18 18 18 18 17 16 15
15 15 14 13 12 12 11 10 9 8 7 6 7 7 8 9 7 8 8 7 7 7 7 7 8 8 9 10 12 13 14 16 17 18 18 19 19 18 18 18 18 17 16 14
12 13 13 12 11 10 9 8 7 7 6 6 6 6 8 11 10 8 7 7 7 8 8 8 8 9 9 10 12 13 14 15 16 17 18 18 18 18 19 18 17 16 16 14
9 10 10 10 10 8 7 6 4 3 3 5 6 7 7 9 10 9 8 8 8 8 9 9 9 9 9 10 11 12 13 15 16 17 17 18 18 18 18 18 17 16 16 14
5 6 7 7 7 6 6 5 3 1 3 5 8 10 9 10 10 11 9 8 8 8 9 9 8 8 9 10 11 12 13 14 15 16 17 17 18 18 18 18 17 16 16 15
2 3 5 5 6 5 5 5 4 3 3 6 8 10 11 11 11 11 10 10 10 9 9 8 8 8 8 9 10 11 12 13 14 15 16 17 18 18 18 18 17 16 15 15
2 2 3 4 5 6 5 5 7 6 4 4 5 10 13 12 11 11 10 10 10 10 9 9 8 8 8 9 10 11 11 12 13 14 15 17 18 18 19 18 17 16 15 15
3 2 3 3 4 5 5 6 6 6 5 3 3 8 14 13 12 11 11 11 11 10 10 9 8 8 8 9 10 10 11 12 13 13 15 16 17 18 18 18 17 16 15 15
2 2 4 5 5 5 6 7 7 7 6 6 8 9 14 15 14 13 12 12 12 11 11 10 9 9 9 9 9 10 10 11 12 13 14 15 16 17 18 18 18 17 16 16
3 2 4 6 7 8 9 9 9 10 9 10 12 12 14 15 15 14 13 13 12 12 11 11 11 10 10 9 9 10 10 11 11 13 14 15 15 16 17 18 17 17 16 16
2 2 3 6 10 10 10 10 11 11 11 11 12 13 15 15 15 15 14 13 13 13 12 12 12 11 11 10 10 10 10 11 11 12 13 14 14 15 16 17 17 17 16 16
4 4 6 8 11 12 13 13 14 14 14 13 13 15 16 17 16 16 16 15 14 13 13 13 13 12 12 11 11 11 10 11 11 11 12 13 14 14 15 16 16 16 16 16
7 8 10 10 12 14 15 15 15 15 16 17 15 16 17 18 17 17 17 16 15 14 14 14 14 14 13 13 12 11 11 11 11 11 11 12 13 14 14 15 15 16 16 15
10 11 12 12 13 15 15 15 16 17 17 17 17 17 18 19 18 17 17 17 17 16 15 15 15 15 15 14 13 13 12 11 11 11 11 12 12 13 14 14 14 15 15 15
13 14 14 14 15 16 16 16 17 18 18 19 19 19 19 19 19 18 19 18 18 17 17 17 17 17 17 16 15 14 14 13 12 12 11 12 12 13 13 13 14 14 14 14
15 16 17 17 17 18 17 18 19 20 20 21 21 21 20 20 20 20 19 19 19 19 19 18 18 19 18 18 17 16 15 14 14 13 13 13 13 13 13 13 14 14 14 14
17 19 20 20 20 21 20 20 20 21 22 23 23 23 22 22 21 21 21 20 20 20 20 20 20 20 20 20 19 18 17 16 16 15 14 14 14 14 14 14 14 14 14 14
20 21 22 23 24 24 23 24 22 23 25 26 26 25 24 24 24 24 23 22 22 22 22 23 22 22 22 22 21 20 20 19 18 17 17 16 16 15 15 15 15 15 15 15
24 25 25 26 27 27 28 28 27 27 29 29 29 28 27 27 27 27 26 26 25 25 25 25 24 24 24 24 23 23 22 21 20 20 19 18 17 17 17 16 16 16 16 16
27 28 29 30 30 31 32 32 31 32 33 33 33 32 32 31 30 30 29 29 28 27 27 27 27 27 26 26 25 25 24 24 23 22 21 20 19 19 18 18 18 17 17 17
30 31 33 33 34 35 36 36 36 36 38 38 38 37 36 35 34 33 33 32 32 31 30 30 30 29 29 28 28 27 26 26 26 25 24 23 22 21 20 20 19 19 19 18
34 35 36 37 37 38 39 40 41 41 42 42 41 41 40 39 38 37 36 36 35 34 33 33 32 32 31 31 30 29 29 29 28 27 26 25 24 24 23 22 21 21 20 20
38 39 40 41 41 43 44 44 44 44 45 45 45 44 44 43 42 41 40 39 38 38 37 36 35 34 33 33 33 32 31 31 30 29 28 28 27 26 25 24 24 23 22 22
41 43 44 44 45 46 46 47 48 48 48 48 48 47 47 46 45 44 43 43 42 41 40 39 38 38 37 36 35 34 34 33 32 32 31 30 29 28 27 27 26 25 25 24
Wind_Direction
190 196 200 204 207 210 215 221 231 248 266 284 290 292 292 298 299 297 294 289 283 288 295 300 311 324 330 335 337 339 341 342 342 342 342 341 340 338 337 336 333 331 326 318
180 186 193 196 203 210 216 222 231 250 265 286 293 295 297 298 295 294 295 291 287 290 291 298 311 322 327 332 336 339 342 344 345 345 345 345 343 342 341 340 338 336 333 327
168 175 185 195 202 209 215 229 234 250 270 282 285 297 300 298 296 297 294 290 289 290 292 296 307 317 324 330 335 339 343 345 346 346 347 347 346 345 344 343 342 340 338 333
163 175 185 192 202 210 217 228 240 255 279 289 291 305 301 297 297 293 288 283 283 287 290 297 306 314 321 328 333 338 343 346 348 349 349 349 349 348 347 346 345 345 344 340
169 178 185 195 205 215 228 238 245 257 277 287 302 313 310 296 297 295 286 281 280 282 287 293 301 308 317 325 332 338 342 346 348 350 351 351 351 352 352 351 351 351 350 348
169 173 186 199 208 220 232 236 248 267 309 324 308 305 297 287 294 297 291 282 279 282 285 291 299 306 316 324 331 336 341 345 348 351 353 353 353 354 356 356 356 356 355 353
153 178 196 206 217 226 232 235 230 285 339 319 301 302 282 282 292 294 290 285 279 281 283 288 295 303 314 323 330 335 339 344 348 352 355 356 356 357 358 359 359 359 360 0
133 201 215 225 235 237 238 240 256 262 268 291 308 309 296 297 294 289 286 285 283 282 283 285 291 301 313 321 328 334 338 343 348 352 355 357 358 359 0 1 0 0 2 2
142 271 245 255 250 243 244 248 259 269 276 300 323 305 299 293 292 287 281 280 280 280 280 280 286 297 309 319 327 333 338 344 347 350 353 357 359 1 2 3 3 3 5 5
150 261 281 291 277 266 265 262 267 273 281 280 279 293 288 291 294 288 283 278 277 277 276 276 282 291 302 313 323 330 336 342 347 351 353 356 359 2 4 5 6 7 8 8
186 293 310 313 311 304 292 285 280 279 278 273 262 263 279 289 290 289 284 279 276 274 272 273 278 286 295 306 317 326 334 340 347 351 354 355 358 2 4 6 8 10 11 10
214 260 318 314 310 305 299 289 280 277 272 268 275 281 282 287 288 285 283 278 275 273 269 270 273 280 287 296 308 318 328 336 341 348 351 353 355 359 3 6 8 10 12 13
259 249 263 286 299 303 298 294 285 280 276 273 277 282 281 280 281 284 282 278 273 272 269 267 270 274 280 288 298 308 317 326 333 339 346 351 353 357 1 4 7 8 9 11
293 276 272 276 282 289 295 296 291 284 279 274 273 275 276 279 280 280 278 276 274 270 268 266 266 269 274 281 289 298 307 316 325 332 339 345 350 354 358 0 3 6 8 9
298 292 287 285 285 286 289 289 287 284 282 279 277 276 278 279 281 281 278 275 273 269 267 266 265 266 270 275 281 289 297 305 314 322 331 338 344 349 353 356 359 2 5 7
303 297 295 293 291 289 289 289 286 284 284 282 279 277 275 279 282 281 277 273 271 268 266 266 265 264 266 271 276 281 288 294 302 311 319 328 334 340 345 349 352 356 359 2
303 299 297 295 292 292 293 293 289 287 285 284 281 279 276 277 280 278 275 272 270 268 266 265 265 264 264 267 271 275 279 284 291 299 307 316 323 330 336 339 343 347 351 354
304 300 298 297 294 293 296 290 288 285 283 280 279 278 276 275 275 276 274 272 269 267 266 265 265 263 264 265 267 270 273 277 282 288 296 303 311 318 325 330 333 337 341 344
306 304 301 299 295 295 295 290 288 285 283 279 278 276 274 273 273 273 273 271 269 267 265 264 264 263 262 263 265 267 269 272 276 281 287 293 300 306 313 320 325 328 330 333
302 301 300 299 297 296 295 289 288 285 280 279 278 277 275 272 271 271 272 271 269 266 265 264 264 263 261 261 263 265 266 268 271 275 279 285 290 296 302 308 314 318 322 324
300 298 296 295 294 292 290 289 288 282 282 283 281 279 277 273 272 270 269 268 268 267 265 263 263 262 261 261 262 264 264 265 267 270 274 278 283 287 293 298 303 308 312 315
295 293 292 291 289 287 288 286 283 281 280 279 279 278 276 274 272 270 269 267 265 264 263 263 262 262 261 261 261 262 263 263 264 266 270 273 277 281 286 290 295 300 304 307
293 292 290 288 286 286 284 284 282 280 278 277 277 277 276 275 272 270 268 266 265 263 262 261 261 261 261 261 261 261 261 262 262 264 267 269 272 276 280 285 289 294 297 301
292 290 288 287 285 283 282 281 281 279 278 278 276 275 275 274 272 270 267 265 263 262 262 261 260 260 260 260 261 261 260 260 261 262 264 266 269 272 276 279 283 287 291 294
292 289 287 285 284 282 281 280 279 279 278 277 275 273 272 271 270 268 266 264 262 261 260 260 259 259 259 259 259 259 259 258 259 260 262 264 266 268 271 275 279 282 285 289
291 289 288 287 285 284 283 281 279 277 276 275 275 273 272 271 269 268 266 264 263 261 260 259 258 258 258 258 257 257 257 257 258 259 260 262 264 266 268 271 274 277 281 284
Height
5800 5806 5810 5815 5818 5822 5825 5827 5829 5831 5831 5832 5834 5834 5834 5834 5834 5833 5833 5833 5832 5832 5832 5832 5831 5830 5829 5827 5825 5823 5821 5818 5815 5811 5807 5804 5800 5796 5792 5788 5785 5781 5778 5775
5802 5807 5810 5814 5817 5821 5824 5826 5828 5830 5830 5832 5832 5833 5832 5832 5832 5832 5832 5832 5831 5831 5831 5831 5830 5829 5828 5827 5824 5822 5820 5817 5813 5810 5806 5802 5798 5795 5791 5787 5783 5779 5776 5773
5803 5808 5811 5814 5816 5820 5823 5825 5827 5828 5828 5830 5831 5832 5831 5831 5831 5831 5831 5831 5830 5830 5830 5830 5829 5828 5827 5826 5824 5821 5819 5816 5813 5809 5805 5801 5797 5794 5790 5786 5782 5778 5775 5771
5804 5808 5811 5815 5818 5820 5823 5825 5827 5828 5829 5830 5831 5831 5831 5830 5830 5830 5830 5830 5830 5829 5829 5829 5828 5828 5826 5825 5823 5821 5818 5815 5812 5808 5805 5801 5797 5793 5789 5785 5781 5777 5773 5770
5806 5809 5813 5816 5819 5821 5823 5825 5827 5828 5829 5830 5830 5831 5832 5829 5829 5829 5829 5829 5829 5828 5828 5828 5827 5826 5825 5824 5822 5820 5817 5814 5811 5808 5804 5800 5796 5792 5788 5784 5780 5776 5773 5770
5808 5811 5815 5817 5820 5822 5824 5826 5827 5828 5829 5830 5830 5831 5831 5829 5828 5828 5828 5828 5828 5827 5827 5827 5826 5825 5824 5823 5821 5819 5816 5814 5811 5807 5804 5800 5796 5792 5788 5784 5780 5776 5773 5769
5813 5815 5817 5819 5821 5823 5824 5826 5827 5828 5829 5830 5829 5830 5829 5828 5828 5827 5827 5827 5826 5826 5826 5825 5825 5824 5823 5822 5820 5818 5816 5813 5810 5807 5804 5800 5796 5792 5788 5784 5780 5776 5773 5769
5816 5818 5819 5821 5822 5823 5824 5826 5827 5827 5828 5828 5828 5828 5828 5827 5827 5826 5826 5825 5825 5825 5824 5824 5824 5823 5822 5821 5819 5817 5815 5813 5810 5807 5804 5800 5797 5792 5788 5784 5780 5777 5773 5770
5818 5820 5821 5821 5822 5823 5824 5825 5826 5826 5826 5827 5829 5829 5827 5825 5825 5825 5825 5824 5824 5823 5823 5823 5822 5822 5821 5820 5818 5816 5814 5812 5810 5807 5804 5800 5797 5793 5789 5785 5781 5777 5774 5771
5819 5820 5821 5822 5822 5823 5824 5824 5824 5825 5825 5826 5828 5828 5825 5823 5823 5823 5823 5822 5822 5822 5821 5821 5821 5820 5820 5819 5817 5816 5814 5812 5809 5806 5804 5801 5797 5793 5790 5786 5782 5778 5775 5772
5820 5821 5822 5822 5822 5822 5823 5823 5823 5823 5824 5824 5825 5826 5823 5822 5821 5821 5821 5820 5820 5820 5820 5819 5819 5819 5818 5817 5816 5815 5813 5811 5809 5806 5804 5801 5798 5794 5790 5787 5783 5779 5776 5773
5820 5821 5821 5822 5822 5821 5821 5822 5822 5822 5822 5822 5822 5825 5821 5819 5819 5818 5818 5818 5817 5817 5817 5817 5817 5817 5817 5816 5815 5814 5812 5810 5808 5806 5803 5801 5798 5795 5791 5788 5784 5781 5777 5774
5820 5821 5821 5821 5822 5821 5820 5819 5819 5819 5819 5819 5819 5822 5818 5817 5816 5815 5815 5815 5815 5815 5815 5815 5815 5815 5814 5814 5813 5812 5811 5809 5807 5805 5803 5800 5798 5795 5792 5789 5785 5782 5779 5776
5819 5820 5820 5821 5819 5818 5818 5817 5817 5817 5816 5816 5816 5816 5815 5813 5813 5812 5812 5812 5812 5812 5812 5812 5812 5812 5812 5811 5811 5810 5809 5808 5806 5804 5802 5800 5798 5795 5792 5789 5786 5783 5780 5777
5818 5818 5817 5817 5817 5816 5815 5815 5814 5814 5813 5813 5813 5812 5812 5810 5810 5809 5809 5808 5808 5809 5808 5809 5809 5809 5809 5809 5808 5808 5807 5806 5804 5803 5801 5799 5797 5794 5792 5789 5786 5784 5781 5778
5815 5815 5814 5814 5814 5813 5812 5812 5811 5810 5810 5809 5808 5809 5808 5806 5806 5805 5805 5805 5805 5805 5805 5805 5805 5805 5805 5805 5805 5805 5804 5803 5802 5801 5800 5798 5796 5794 5791 5789 5786 5784 5781 5778
5812 5812 5811 5811 5810 5809 5809 5809 5807 5807 5806 5805 5804 5804 5803 5802 5802 5801 5801 5801 5801 5801 5801 5801 5801 5801 5801 5801 5801 5801 5800 5800 5799 5799 5797 5796 5794 5792 5790 5788 5786 5783 5781 5778
5810 5808 5807 5806 5807 5805 5808 5804 5803 5802 5801 5800 5799 5798 5798 5798 5797 5796 5796 5796 5796 5796 5796 5796 5796 5797 5797 5797 5797 5797 5797 5796 5796 5795 5794 5793 5792 5790 5788 5786 5784 5782 5780 5778
5806 5805 5803 5802 5801 5800 5801 5799 5798 5797 5796 5794 5793 5792 5792 5792 5792 5791 5791 5791 5791 5791 5791 5791 5791 5791 5792 5792 5792 5792 5792 5792 5792 5791 5791 5790 5789 5788 5786 5784 5782 5780 5778 5777
5802 5800 5799 5797 5795 5795 5796 5793 5791 5791 5789 5787 5786 5786 5786 5786 5786 5786 5785 5785 5785 5785 5785 5785 5785 5786 5786 5786 5787 5787 5787 5787 5787 5787 5786 5786 5785 5784 5783 5781 5780 5778 5776 5774
5796 5795 5793 5791 5789 5788 5787 5785 5785 5785 5782 5780 5779 5778 5779 5779 5779 5779 5779 5779 5779 5779 5779 5779 5779 5779 5779 5780 5780 5781 5781 5782 5782 5781 5781 5781 5780 5780 5779 5777 5776 5775 5773 5771
5790 5788 5787 5785 5783 5783 5779 5777 5777 5776 5773 5771 5770 5770 5770 5770 5770 5770 5771 5771 5771 5771 5772 5772 5772 5772 5772 5773 5773 5774 5774 5775 5775 5775 5775 5775 5775 5775 5774 5773 5772 5771 5769 5768
5783 5781 5778 5777 5776 5773 5770 5768 5767 5765 5764 5762 5761 5761 5760 5761 5761 5762 5762 5762 5762 5763 5763 5763 5764 5764 5765 5765 5766 5766 5767 5767 5768 5768 5769 5769 5769 5769 5768 5768 5767 5766 5765 5763
5775 5771 5768 5767 5765 5762 5760 5758 5756 5755 5753 5752 5751 5751 5750 5750 5750 5751 5751 5752 5752 5753 5753 5754 5755 5755 5756 5757 5757 5758 5758 5759 5760 5761 5761 5762 5762 5762 5762 5762 5761 5760 5759 5758
5763 5760 5757 5755 5754 5751 5748 5746 5744 5743 5741 5740 5739 5738 5738 5738 5738 5738 5739 5740 5741 5741 5742 5743 5744 5745 5746 5747 5748 5749 5749 5750 5751 5752 5753 5754 5754 5755 5755 5755 5755 5754 5753 5752
5751 5747 5744 5742 5740 5737 5735 5732 5730 5728 5727 5726 5725 5725 5724 5724 5724 5724 5725 5726 5728 5729 5730 5731 5732 5733 5735 5736 5737 5739 5739 5740 5741 5742 5744 5745 5746 5746 5747 5747 5747 5747 5746 5745